• Processing (Info)

  • MPEC 1996-B11 : 1996 BG1

    The following Minor Planet Electronic Circular may be linked-to from your own Web pages, but must not otherwise be redistributed electronically.

    A form allowing access to any MPEC is at the bottom of this page.


    Read MPEC 1996-B10 Read MPEC 1996-B12


    M.P.E.C. 1996-B11                                Issued 1996 Jan. 25, 22:21 UT
    
         The Minor Planet Electronic Circulars contain information on unusual
             minor planets and routine data on comets.  They are published
       on behalf of Commission 20 of the International Astronomical Union by the
              Minor Planet Center, Smithsonian Astrophysical Observatory,
                              Cambridge, MA 02138, U.S.A.
    
                 BMARSDEN@CFA.HARVARD.EDU or GWILLIAMS@CFA.HARVARD.EDU
    
                                       1996 BG1
    
    Observations:
         J96B01G* C1996 01 21.28838 09 22 52.94 +07 21 35.8          20.6 V      691
         J96B01G  C1996 01 21.31773 09 22 45.83 +07 22 26.5          21.3 V      691
         J96B01G  C1996 01 21.33879 09 22 40.73 +07 23 03.0          20.8 V      691
         J96B01G  C1996 01 23.30813 09 14 55.08 +08 22 34.5                      711
         J96B01G  C1996 01 23.31544 09 14 53.27 +08 22 48.6                      711
         J96B01G  C1996 01 24.22219 09 11 05.15 +08 52 06.6                      691
         J96B01G  C1996 01 24.22795 09 11 03.55 +08 52 18.8                      691
    
    Observer details:
    691 Steward Observatory, Kitt Peak.  Observers J. V. Scotti, T. Gehrels.
        0.91-m Spacewatch telescope.
    711 McDonald Observatory, Fort Davis.  Observer A. L. Whipple.
        0.76-m reflector.
    
    Orbital elements:
    1996 BG1
    Epoch 1996 Jan. 18.0 TT = JDT 2450100.5                 Marsden
    M 197.32884              (2000.0)            P               Q
    n   1.15394858     Peri.  150.45683     +0.35250271     +0.93491730
    a   0.9002126      Node   140.14423     -0.87061697     +0.34365322
    e   0.2701739      Incl.    3.65769     -0.34317332     +0.08849918
    P   0.85           H    23.5          G   0.15
    From 7 observations 1996 Jan. 21-24.
    
    Ephemeris:
    1996 BG1                 a,e,i = 0.90, 0.27, 4                   q = 0.6570
    Date    TT    R. A. (2000) Decl.     Delta      r     Elong.  Phase     V
    1996 01 18    09 34.07   +05 56.0    0.170    1.137   152.2    23.8    21.0
    1996 01 20    09 27.51   +06 46.3    0.163    1.135   156.0    20.7    20.9
    1996 01 22    09 20.15   +07 42.7    0.157    1.132   159.9    17.4    20.7
    1996 01 24    09 12.00   +08 45.2    0.151    1.130   164.0    13.9    20.5
    1996 01 26    09 03.06   +09 53.5    0.146    1.127   168.1    10.4    20.2
    1996 01 28    08 53.33   +11 07.1    0.141    1.124   171.9     7.1    20.0
    1996 01 30    08 42.86   +12 25.4    0.137    1.121   174.4     4.9    19.8
    1996 02 01    08 31.71   +13 47.3    0.133    1.118   173.2     6.0    19.8
    1996 02 03    08 19.98   +15 11.7    0.131    1.114   169.3     9.4    19.9
    1996 02 05    08 07.76   +16 37.2    0.129    1.110   164.6    13.6    20.1
    1996 02 07    07 55.19   +18 02.3    0.127    1.106   159.6    18.1    20.2
    1996 02 09    07 42.43   +19 25.6    0.126    1.102   154.4    22.7    20.3
    1996 02 11    07 29.63   +20 45.8    0.126    1.097   149.3    27.4    20.4
    1996 02 13    07 16.95   +22 01.7    0.127    1.092   144.2    31.9    20.6
    1996 02 15    07 04.53   +23 12.7    0.127    1.087   139.2    36.4    20.7
    1996 02 17    06 52.51   +24 18.2    0.129    1.082   134.3    40.8    20.8
    1996 02 19    06 41.01   +25 18.1    0.131    1.076   129.6    45.1    21.0
    1996 02 21    06 30.08   +26 12.5    0.133    1.071   125.0    49.2    21.1
    1996 02 23    06 19.79   +27 01.6    0.135    1.065   120.6    53.1    21.2
    1996 02 25    06 10.13   +27 46.0    0.138    1.058   116.4    56.9    21.4
    1996 02 27    06 01.11   +28 26.0    0.141    1.052   112.4    60.5    21.5
    1996 02 29    05 52.68   +29 02.3    0.144    1.045   108.6    64.0    21.7
    1996 03 02    05 44.81   +29 35.2    0.147    1.038   104.8    67.3    21.8
    1996 03 04    05 37.43   +30 05.3    0.150    1.031   101.2    70.6    21.9
    1996 03 06    05 30.49   +30 32.7    0.153    1.024    97.8    73.7    22.0
    1996 03 08    05 23.94   +30 58.0    0.156    1.017    94.4    76.8    22.2
    
    Brian G. Marsden             (C) Copyright 1996 MPC           M.P.E.C. 1996-B11
    

    Read MPEC 1996-B10 Read MPEC 1996-B12


    MPEC number:

    Enter an MPEC number in one of the following forms:

    • 1997-B01 (the full form)
    • J97B01 (the packed version of the full form)
    • B01 (the abbreviated form)